Regional Weather Roundup
Issued by NWS

Home | Current Version | Previous Version | Graphics & Text | Print | Product List | Glossary Off
Versions: 1 2 3 4 5 6 7 8 9 10 11 12 13 14 15 16 17 18 19 20 21 22 23 24 25 26 27 28 29 30 31 32 33 34 35 36 37 38 39 40 41 42 43 44 45 46 47 48 49 50

000
ASUS43 KDTX 190910
RWRMI
MICHIGAN HOURLY REGIONAL WEATHER ROUNDUP
NATIONAL WEATHER SERVICE DETROIT/PONTIAC MI
500 AM EDT SUN APR 19 2015

NOTE: "FAIR" INDICATES FEW OR NO CLOUDS BELOW 12,000 FEET WITH NO
SIGNIFICANT WEATHER AND/OR OBSTRUCTION TO VISIBILITY.

MIZ047>049-052>055-059>063-066>070-074>076-081>083-191000-
SOUTHEAST LOWER MICHIGAN

CITY           SKY/WX    TMP DP  RH WIND       PRES   REMARKS
ADRIAN         PTCLDY    44  32  62 E13       30.05F
ALMA           MOCLDY    41  32  70 E9        30.10F
ANN ARBOR      PTCLDY    45  31  58 E7        30.06F
BAD AXE        PTCLDY    37  27  67 E5        30.15S WCI  34
CARO           PTCLDY    39  28  66 CALM      30.12F
DETROIT CITY   MOCLDY    44  31  60 E10       30.09F
DETROIT        PTCLDY    49  32  52 NE10      30.08F
FLINT          MOCLDY    42  30  62 E9        30.10F
GROSSE ILE     PTCLDY    43  36  75 NE7       30.07S
HILLSDALE      PTCLDY    48  29  47 E16G22    30.01F
HOWELL         MOCLDY    46  29  52 E8        30.06F

CITY           SKY/WX    TMP DP  RH WIND       PRES   REMARKS
JACKSON        PTCLDY    46  29  51 E13       30.03F
LAMBERTVILLE   PTCLDY    48  34  57 E12G21    30.05F
LANSING        MOCLDY    42  30  62 E8        30.07F
LAPEER         FAIR      38  30  72 CALM      30.11S
MASON          PTCLDY    41  29  63 E5        30.05F
MONROE         PTCLDY    45  34  65 E8        30.05F
PONTIAC        MOCLDY    45  28  51 E10       30.08F
PORT HOPE        N/A     41  33  73 E16       30.13F
PORT HURON     PTCLDY    36  32  87 NE6       30.12F WCI  31
TRI CITIES     PTCLDY    42  30  62 E8        30.12F
TROY           MOCLDY    44  31  58 NE6       30.10F
SAGINAW HB     PTCLDY    36  30  80 NE7       30.11F WCI  30
$$
MIZ043>046-050>051-056>058-064>065-071>073-077>080-191000-
SOUTHWEST LOWER MICHIGAN

CITY           SKY/WX    TMP DP  RH WIND       PRES   REMARKS
BATTLE CREEK   MOCLDY    48  29  47 E9        30.02F
BENTON HARBOR  CLOUDY    53  27  36 E15G23    29.94F
BIG RAPIDS     PTCLDY    44  29  57 E13G18    30.08S
COLDWATER      CLOUDY    51  24  35 E16G22    30.00F
FREMONT        FAIR      45  27  48 E12       30.03F
HOLLAND        CLOUDY    48  31  51 E12       30.01F
GRAND RAPIDS   MOCLDY    44  29  55 E18       30.03F
IONIA          FAIR      42  31  65 E10       30.05F
KALAMAZOO      MOCLDY    49  27  42 E6        30.01F
LUDINGTON      PTCLDY    48  28  45 E16G24    30.02F
MARSHALL       MOCLDY    46  28  49 E6        30.01F
MOUNT PLEASANT PTCLDY    37  33  84 NE6       30.10F WCI  33
MUSKEGON       MOCLDY    48  28  46 E15G25    30.00F
SOUTH HAVEN    CLOUDY    53  24  31 E12G22    29.97F
$$
MIZ016>042-191000-
NORTHERN LOWER MICHIGAN

CITY           SKY/WX    TMP DP  RH WIND       PRES   REMARKS
ALPENA         CLEAR     39  28  64 E12G22    30.19F WCI  32
BEAVER ISLAND  CLEAR     41  27  58 E13       30.11F
BELLAIRE       CLEAR     46  22  39 SE7       30.10F
CADILLAC       CLEAR     40  25  55 E10       30.08F WCI  34
CHARLEVOIX     CLEAR     45  25  45 SE12      30.12F
FRANKFORT      CLEAR     50  17  26 E7G17     30.04F
GAYLORD        CLEAR     39  23  52 SE9       30.12S WCI  33
GRAYLING       CLEAR     32  24  72 E7        30.14S WCI  26
HARBOR SPRINGS CLEAR     40  25  54 E12       30.13F WCI  34
HOUGHTON LAKE  CLEAR     37  25  61 E8        30.12F WCI  31
MANISTEE       CLEAR     46  25  42 E15       30.04F
OSCODA         CLEAR     39  31  73 E9        30.17S WCI  33
PELLSTON       CLEAR     35  25  66 SE5       30.15S WCI  31
ROGERS CITY    CLEAR     37  31  79 SE10G17   30.19S WCI  30
TRAVERSE CITY  CLEAR     46  24  42 VRB7G16   30.08S
$$
MIZ007>008-015-191000-
EASTERN UPPER MICHIGAN

CITY           SKY/WX    TMP DP  RH WIND       PRES   REMARKS
KINROSS        CLEAR     37  27  65 E12       30.18S WCI  30
MACKINAC ISLAN CLEAR     38  29  71 E18G29    30.16S WCI  28
NEWBERRY       CLEAR     35  27  71 SE12      30.13F WCI  27
S. S. MARIE    CLEAR     39  24  55 E8G17     30.18F WCI  33
MUNISING         N/A     39  26  59 VRB6      30.08F WCI  35
$$
MIZ004>006-011>014-085-191000-
CENTRAL UPPER MICHIGAN

CITY           SKY/WX    TMP DP  RH WIND       PRES   REMARKS
MANISTIQUE     CLEAR     39  28  64 E8        30.09F WCI  34
ESCANABA       CLEAR     37  27  65 E6        30.06F WCI  33
MENOMINEE      PTCLDY    41  28  60 E8        30.02F
SAWYER-GWINN   MOCLDY    39  25  56 SE9       30.04F WCI  33
$$
MIZ001>003-009>011-084-191000-
WESTERN UPPER MICHIGAN

CITY           SKY/WX    TMP DP  RH WIND       PRES   REMARKS
IRON MOUNTAIN  CLOUDY    40  26  57 SE6       30.02F
HOUGHTON       MOCLDY    37  27  67 E14       30.01F WCI  28
COPPER HARBOR    N/A     37  28  70 SW10G20   30.03F WCI  30
IRONWOOD       CLOUDY    46  30  53 CALM      29.93R
$$

ABBREVIATIONS USED IN REMARKS
   TC - TEMPERATURE IN CELSIUS
  WCI - WIND CHILL INDEX
   HX - HEAT INDEX
  VSB - VISIBILITY



USA.gov is the U.S. government's official web portal to all federal, state and local government web resources and services.